Meteo Giornale » Osservazioni meteo Italia » Catania-Fontanarossa

ore: 16:50 - Osservazioni Meteo Catania-Fontanarossa
Lat. 37° 28' N Lon. 15° 3' E Alt. 11 metri s.l.m.

coperto_pioggia Europe/Rome

13 °C

Pioggia

Temp. 24 Ore

13 °C

14 °C

Est

37 Km/h

Dew point 10 °C

Umidità 81 %

Visibilità  3 Km

Il sole sorge alle ore 07:08

Il sole tramonta alle ore 17:14

Data e Ora Cielo e Fenomeni T °C DP °C Um. % Pres. hPa Vis. km Vento km/h
Oggi h: 16:50 coperto_pioggia Pioggia 13 10 81 1017 3 E 37
Oggi h: 16:20 coperto_pioggia Pioggia 13 11 87 1018 4 E 29.6
Oggi h: 15:50 coperto_pioggia Pioggia 13 10 81 1018 4 E 31.5
Oggi h: 15:20 coperto_pioggia Pioggia 13 10 81 1018 4 E 33.3
Oggi h: 14:50 coperto_pioggia Pioggia 13 10 81 1018 4 E 35.2
Oggi h: 14:20 coperto_pioggia Pioggia Debole 14 10 76 1018 6 E 35.2
Oggi h: 13:50 molto_nuvoloso Molto Nuvoloso 14 10 76 1018 6 E 35.2
Oggi h: 13:20 molto_nuvoloso Molto Nuvoloso 14 10 76 1018 6 E 33.3
Oggi h: 12:50 coperto_pioggia Pioggia Debole 14 11 82 1019 5 E 33.3
Oggi h: 12:20 molto_nuvoloso Molto Nuvoloso 14 10 76 1019 6 E 35.2
Oggi h: 11:50 molto_nuvoloso Molto Nuvoloso 14 10 76 1020 6 E 31.5
Oggi h: 11:20 molto_nuvoloso Molto Nuvoloso 14 10 76 1021 6 E 37
Oggi h: 10:50 molto_nuvoloso Molto Nuvoloso 14 10 76 1021 6 E 37
Oggi h: 10:20 molto_nuvoloso Molto Nuvoloso 14 10 76 1021 6 E 31.5
Oggi h: 09:50 molto_nuvoloso Molto Nuvoloso 14 10 76 1021 6 E 35.2
Oggi h: 09:20 nuvoloso Nuvoloso 14 9 71 1021 6 E 37
Oggi h: 08:50 coperto_pioggia Pioggia Debole 13 10 81 1020 5 E 33.3
Oggi h: 08:20 nuvoloso Nuvoloso 13 9 76 1020 7 E 35.2
Oggi h: 07:50 nuvoloso Nuvoloso 13 8 71 1020 7 E 35.2
Oggi h: 07:20 nuvoloso Nuvoloso 13 8 71 1020 10 E 33.3
Oggi h: 06:50 nuvoloso Nuvoloso 13 9 76 1020 10 E 31.5
Oggi h: 06:20 nuvoloso Nuvoloso 13 8 71 1020 10 E 31.5
Oggi h: 05:50 molto_nuvoloso Molto Nuvoloso 13 8 71 1020 10 E 31.5
Oggi h: 05:20 molto_nuvoloso Molto Nuvoloso 13 7 66 1021 10 E 29.6
Oggi h: 04:50 molto_nuvoloso Molto Nuvoloso 13 8 71 1020 9 E 31.5
Oggi h: 04:20 coperto_pioggia Pioggia Debole 13 8 71 1021 8 E 29.6
Oggi h: 03:50 coperto_pioggia Pioggia Debole 13 8 71 1021 8 E/SE 31.5
Oggi h: 03:20 coperto_pioggia Pioggia Debole 13 8 71 1021 8 E/SE 29.6
Oggi h: 02:50 coperto_pioggia Pioggia Debole 13 8 71 1022 8 E/SE 27.8
Oggi h: 02:20 molto_nuvoloso Molto Nuvoloso 13 8 71 1022 8 E 29.6
Oggi h: 01:50 molto_nuvoloso Molto Nuvoloso 13 8 71 1022 8 E 29.6
Oggi h: 00:50 coperto_pioggia Pioviggine Leggera 13 8 71 1022 8 E 31.5
Oggi h: 00:20 molto_nuvoloso Molto Nuvoloso 13 8 71 1022 8 E 31.5
Ieri h: 23:50 molto_nuvoloso Molto Nuvoloso 13 8 71 1022 8 E 29.6
Ieri h: 23:20 molto_nuvoloso Molto Nuvoloso 13 9 76 1022 10 E 31.5
Ieri h: 22:50 nuvoloso Nuvoloso 13 9 76 1022 10 E 29.6
Ieri h: 22:20 nuvoloso Nuvoloso 13 8 71 1022 8 E 31.5
Ieri h: 21:50 nuvoloso Nuvoloso 13 9 76 1022 8 E 33.3
Ieri h: 21:20 nuvoloso Nuvoloso 13 9 76 1022 8 E/SE 29.6
Ieri h: 20:50 nuvoloso Nuvoloso 13 9 76 1022 7 E/SE 31.5
Ieri h: 20:20 nuvoloso Nuvoloso 13 9 76 1022 6 E/SE 29.6
Ieri h: 19:50 nuvoloso Nuvoloso 13 9 76 1022 6 E/SE 31.5
Ieri h: 19:20 nuvoloso Nuvoloso 14 9 71 1022 6 E/SE 33.3
Ieri h: 18:50 nuvoloso Nuvoloso 14 9 71 1022 6 E/SE 29.6
Ieri h: 18:20 nuvoloso Nuvoloso 13 9 76 1021 6 E/SE 31.5
Ieri h: 17:50 nuvoloso Nuvoloso 13 9 76 1021 6 E 33.3
Ieri h: 17:20 molto_nuvoloso Molto Nuvoloso 14 9 71 1020 6 E 31.5
Ieri h: 16:50 molto_nuvoloso Molto Nuvoloso 13 9 76 1021 6 E 29.6